DW3478 Weather Reports


time (UTC)temp
C
wind
direction
speed
KPH
gust
KPH
rain 1hr
cm
rain 24hr
cm
rain mn
cm
humidity
%
barometer
mb
20200930030820 19 76 4.8 9.7 0.00 0.03 0.00 59 1018.6
20200930030307 19 70 8.0 20.9 0.00 0.03 0.00 59 1018.6
20200930025805 19 65 8.0 20.9 0.00 0.03 0.00 60 1018.6
20200930025308 19 37 9.7 27.4 0.00 0.03 0.00 60 1018.6
20200930024807 19 44 8.0 19.3 0.00 0.03 0.00 61 1018.6
20200930024304 19 61 9.7 22.5 0.00 0.03 0.00 61 1018.6
20200930022812 19 66 8.0 19.3 0.00 0.03 0.00 61 1018.7
20200930022306 19 44 8.0 19.3 0.00 0.03 0.00 61 1018.8
20200930021311 19 49 11.3 19.3 0.00 0.03 0.00 60 1018.8
20200930020804 19 47 12.9 19.3 0.00 0.03 0.00 60 1018.9
20200930020307 19 40 14.5 20.9 0.00 0.03 0.00 59 1018.9
20200930015806 19 28 14.5 20.9 0.00 0.03 0.00 59 1018.8
20200930015306 19 34 11.3 20.9 0.00 0.03 0.00 58 1018.8
20200930014307 19 30 11.3 20.9 0.00 0.03 0.00 58 1019.0
20200930013812 19 31 9.7 19.3 0.00 0.03 0.00 58 1018.9
20200930013305 20 30 11.3 19.3 0.00 0.03 0.00 58 1019.0
20200930012806 20 29 16.1 22.5 0.00 0.03 0.00 57 1019.0
20200930012307 20 42 16.1 24.1 0.00 0.03 0.00 57 1019.0
20200930011805 20 37 17.7 27.4 0.00 0.03 0.00 57 1019.1
20200930010304 20 36 17.7 22.5 0.00 0.03 0.00 58 1019.2
20200930005804 20 33 14.5 25.7 0.00 0.03 0.00 58 1019.2
20200930005305 20 23 14.5 22.5 0.00 0.03 0.00 59 1019.2
20200930004807 20 19 9.7 20.9 0.00 0.03 0.00 60 1019.3
20200930004306 20 21 8.0 14.5 0.00 0.03 0.00 60 1019.3
20200930003811 20 10 8.0 20.9 0.00 0.03 0.00 61 1019.3
20200930003307 20 27 9.7 19.3 0.00 0.03 0.00 61 1019.3
20200930002331 20 47 12.9 19.3 0.00 0.03 0.00 62 1019.4
20200930001805 20 7 4.8 11.3 0.00 0.03 0.00 63 1019.4
20200930001304 20 10 8.0 20.9 0.00 0.03 0.00 63 1019.5
20200930000804 20 22 6.4 14.5 0.00 0.03 0.00 62 1019.5
20200929235804 20 35 4.8 8.0 0.00 0.03 0.00 62 1019.5
20200929235307 20 33 3.2 4.8 0.00 0.03 0.00 62 1019.4
20200929234804 20 48 3.2 4.8 0.00 0.03 0.00 62 1019.3
20200929234304 20 29 1.6 9.7 0.00 0.03 0.00 61 1019.2
20200929233804 20 43 4.8 8.0 0.00 0.03 0.00 61 1019.2
20200929233305 20 6 3.2 4.8 0.00 0.03 0.00 61 1019.4
20200929232804 20 15 3.2 8.0 0.00 0.03 0.00 61 1019.4
20200929232310 20 16 3.2 8.0 0.00 0.03 0.00 60 1019.6
20200929231806 20 7 3.2 8.0 0.00 0.03 0.00 60 1019.6
20200929231315 20 347 3.2 8.0 0.00 0.03 0.00 59 1019.6
20200929230818 20 358 4.8 8.0 0.00 0.03 0.00 60 1019.7
20200929230305 20 38 4.8 8.0 0.00 0.03 0.00 60 1019.7
20200929225805 20 26 4.8 8.0 0.00 0.03 0.03 60 1019.8
20200929225305 20 32 4.8 9.7 0.00 0.03 0.03 60 1019.7
20200929224305 20 31 4.8 9.7 0.00 0.03 0.03 61 1019.3
20200929223805 20 17 11.3 19.3 0.00 0.03 0.03 61 1019.2
20200929223310 20 31 9.7 16.1 0.00 0.03 0.03 61 1019.5
20200929222806 20 27 4.8 12.9 0.00 0.03 0.03 61 1019.6
20200929222310 20 35 1.6 8.0 0.00 0.03 0.03 60 1019.6
20200929221804 20 20 6.4 11.3 0.00 0.03 0.03 60 1019.5
20200929220806 20 37 8.0 19.3 0.00 0.03 0.03 60 1019.4
20200929220307 20 41 14.5 24.1 0.00 0.03 0.03 60 1019.4
20200929214304 20 36 8.0 19.3 0.00 0.03 0.03 61 1019.4
20200929213808 20 21 11.3 19.3 0.00 0.03 0.03 61 1019.3
20200929213304 20 33 16.1 22.5 0.00 0.03 0.03 61 1019.1
20200929212808 20 37 20.9 33.8 0.00 0.03 0.03 61 1018.8
20200929212311 20 43 11.3 19.3 0.00 0.03 0.03 61 1018.9
20200929211306 20 51 6.4 19.3 0.00 0.03 0.03 61 1019.1
20200929205804 20 35 9.7 19.3 0.00 0.03 0.03 60 1019.2
20200929204805 20 37 3.2 9.7 0.00 0.03 0.03 60 1019.2
20200929204306 20 300 3.2 4.8 0.00 0.03 0.03 60 1019.1
20200929203805 20 41 3.2 4.8 0.00 0.03 0.03 60 1019.1
20200929202305 20 273 3.2 11.3 0.00 0.03 0.03 60 1018.8
20200929201809 20 253 8.0 11.3 0.00 0.03 0.03 60 1018.7
20200929200811 20 251 3.2 16.1 0.00 0.03 0.03 60 1018.7
20200929195804 20 165 1.6 4.8 0.00 0.03 0.03 60 1018.6
20200929195312 20 357 8.0 19.3 0.00 0.03 0.03 60 1018.4
20200929194806 20 30 14.5 24.1 0.00 0.03 0.03 60 1018.3
20200929194304 20 32 11.3 22.5 0.00 0.03 0.03 60 1018.3
20200929193807 20 50 17.7 29.0 0.00 0.03 0.03 60 1018.3
20200929193304 20 48 14.5 24.1 0.00 0.03 0.03 60 1018.2
20200929192805 20 38 9.7 20.9 0.00 0.03 0.03 60 1018.3
20200929192311 20 14 3.2 11.3 0.00 0.03 0.03 61 1018.4
20200929190808 20 340 0.0 3.2 0.00 0.03 0.03 61 1018.3
20200929190306 20 50 4.8 8.0 0.00 0.03 0.03 61 1018.3
20200929185805 20 59 9.7 19.3 0.00 0.03 0.03 61 1018.3
20200929185304 20 89 6.4 19.3 0.00 0.03 0.03 61 1018.3
20200929184805 20 37 4.8 25.7 0.00 0.03 0.03 61 1018.3
20200929184310 20 47 11.3 19.3 0.00 0.03 0.03 60 1018.3
20200929182318 21 86 8.0 19.3 0.00 0.03 0.03 59 1018.2
20200929181804 21 73 9.7 16.1 0.00 0.03 0.03 59 1018.1
20200929181305 21 41 16.1 24.1 0.00 0.03 0.03 59 1018.1
20200929180808 21 43 12.9 19.3 0.00 0.03 0.03 59 1018.1
20200929180309 21 41 11.3 19.3 0.00 0.03 0.03 59 1018.0
20200929175805 21 50 11.3 20.9 0.00 0.03 0.03 59 1018.0
20200929174304 21 7 9.7 16.1 0.00 0.03 0.03 58 1017.7
20200929172305 22 76 4.8 11.3 0.00 0.03 0.03 59 1017.5
20200929171304 22 318 1.6 4.8 0.00 0.03 0.03 60 1017.5
20200929170804 22 165 0.0 3.2 0.00 0.03 0.03 62 1017.5
20200929170304 21 21 1.6 4.8 0.00 0.03 0.03 61 1017.6
20200929165808 22 197 4.8 9.7 0.00 0.03 0.03 60 1017.6
20200929165306 22 202 4.8 11.3 0.00 0.03 0.03 61 1017.6
20200929164809 22 250 6.4 9.7 0.00 0.03 0.03 61 1017.6
20200929162305 22 261 4.8 11.3 0.03 0.03 0.03 64 1017.6
20200929161806 21 237 9.7 14.5 0.03 0.03 0.03 65 1017.6
20200929161304 22 253 3.2 9.7 0.03 0.03 0.03 67 1017.5
20200929160311 21 268 3.2 4.8 0.03 0.03 0.03 70 1017.5
20200929155807 21 278 1.6 4.8 0.03 0.03 0.03 71 1017.6
20200929155306 20 278 3.2 4.8 0.03 0.03 0.03 72 1017.6
20200929154805 20 317 1.6 3.2 0.03 0.03 0.03 72 1017.5
20200929153304 21 270 1.6 4.8 0.03 0.03 0.03 71 1017.6
20200929152317 21 266 4.8 9.7 0.00 0.00 0.00 67 1017.6
20200929151806 21 282 8.0 19.3 0.00 0.00 0.00 66 1017.7
20200929151306 21 264 6.4 16.1 0.00 0.00 0.00 64 1017.7
20200929150304 21 251 9.7 19.3 0.00 0.00 0.00 63 1017.7
20200929145804 21 246 8.0 16.1 0.00 0.00 0.00 63 1017.7
20200929145312 22 248 9.7 14.5 0.00 0.00 0.00 63 1017.7
20200929144805 22 264 9.7 12.9 0.00 0.00 0.00 63 1017.9
20200929143307 22 269 4.8 11.3 0.00 0.00 0.00 64 1017.9
20200929142804 21 253 6.4 8.0 0.00 0.00 0.00 63 1018.0
20200929142313 21 217 4.8 14.5 0.00 0.00 0.00 62 1018.0
20200929141304 22 203 8.0 11.3 0.00 0.00 0.00 62 1017.7
20200929140305 21 202 9.7 14.5 0.00 0.00 0.00 62 1017.9
20200929135804 21 155 8.0 14.5 0.00 0.00 0.00 61 1018.0
20200929135305 22 186 9.7 19.3 0.00 0.00 0.00 60 1017.9
20200929134807 22 223 8.0 14.5 0.00 0.00 0.00 62 1017.9
20200929134304 22 212 9.7 14.5 0.00 0.00 0.00 61 1018.0
20200929133807 22 190 8.0 11.3 0.00 0.00 0.00 63 1018.0
20200929132817 21 181 8.0 14.5 0.00 0.00 0.00 65 1018.0
20200929132318 21 157 6.4 12.9 0.00 0.00 0.00 63 1018.1
20200929131804 21 159 4.8 9.7 0.00 0.00 0.00 62 1018.2
20200929131305 21 119 6.4 11.3 0.00 0.00 0.00 62 1018.2
20200929130804 21 144 4.8 14.5 0.00 0.00 0.00 62 1018.2
20200929130310 22 157 4.8 12.9 0.00 0.00 0.00 62 1018.2
20200929125808 22 160 8.0 14.5 0.00 0.00 0.00 62 1018.2
20200929125350 21 146 6.4 11.3 0.00 0.00 0.00 62 1018.1
20200929124810 21 148 8.0 12.9 0.00 0.00 0.00 62 1018.2
20200929123811 21 161 4.8 11.3 0.00 0.00 0.00 61 1018.1
20200929123305 21 172 4.8 8.0 0.00 0.00 0.00 60 1018.2
20200929122804 21 128 8.0 14.5 0.00 0.00 0.00 61 1018.1
20200929122308 21 186 8.0 14.5 0.00 0.00 0.00 61 1018.3
20200929121805 22 187 9.7 19.3 0.00 0.00 0.00 60 1018.2
20200929120805 22 174 8.0 16.1 0.00 0.00 0.00 60 1018.2
20200929120311 22 175 9.7 16.1 0.00 0.00 0.00 60 1018.2
20200929115804 22 184 8.0 16.1 0.00 0.00 0.00 59 1018.2
20200929114805 22 203 11.3 22.5 0.00 0.00 0.00 61 1018.2
20200929114304 22 153 6.4 19.3 0.00 0.00 0.00 59 1018.2
20200929113805 22 142 9.7 19.3 0.00 0.00 0.00 60 1018.3
20200929113305 22 144 12.9 19.3 0.00 0.00 0.00 60 1018.3
20200929112805 22 158 14.5 20.9 0.00 0.00 0.00 58 1018.3
20200929112308 22 143 9.7 19.3 0.00 0.00 0.00 56 1018.3
20200929111804 23 146 9.7 14.5 0.00 0.00 0.00 55 1018.4
20200929110805 24 138 9.7 19.3 0.00 0.00 0.00 47 1018.4
20200929110308 24 43 9.7 22.5 0.00 0.00 0.00 46 1018.2
20200929104806 23 80 11.3 22.5 0.00 0.00 0.00 48 1018.2
20200929104304 24 42 14.5 29.0 0.00 0.00 0.00 48 1018.3
20200929103805 24 40 11.3 22.5 0.00 0.00 0.00 47 1018.2
20200929103304 23 100 1.6 8.0 0.00 0.00 0.00 48 1018.3
20200929102804 23 56 8.0 16.1 0.00 0.00 0.00 48 1018.2
20200929102306 23 33 8.0 19.3 0.00 0.00 0.00 47 1018.2
20200929101804 23 35 9.7 22.5 0.00 0.00 0.00 48 1018.1
20200929101304 23 311 3.2 22.5 0.00 0.00 0.00 49 1018.2
20200929095808 23 198 4.8 8.0 0.00 0.00 0.00 49 1018.1
20200929095306 23 333 1.6 8.0 0.00 0.00 0.00 48 1018.1
20200929094304 23 35 4.8 22.5 0.00 0.00 0.00 48 1018.0
20200929093806 22 317 4.8 20.9 0.00 0.00 0.00 51 1017.9
20200929092804 22 62 20.9 38.6 0.00 0.00 0.00 52 1017.7
20200929092315 22 48 19.3 29.0 0.00 0.00 0.00 53 1017.8
20200929091304 21 86 12.9 41.8 0.00 0.00 0.00 54 1018.0
20200929090812 21 32 17.7 33.8 0.00 0.00 0.00 53 1017.6
20200929090306 21 44 20.9 35.4 0.00 0.00 0.00 54 1017.6
20200929085804 21 34 22.5 38.6 0.00 0.00 0.00 54 1017.7
20200929085309 21 48 11.3 38.6 0.00 0.00 0.00 54 1017.6
20200929084812 21 48 16.1 32.2 0.00 0.00 0.00 55 1017.5
20200929083311 21 47 12.9 25.7 0.00 0.00 0.00 56 1017.5
20200929082808 21 47 12.9 24.1 0.00 0.00 0.00 56 1017.5
20200929075810 20 11 6.4 19.3 0.00 0.00 0.00 61 1017.4
20200929075314 19 11 4.8 9.7 0.00 0.00 0.00 62 1017.3
20200929074307 19 353 3.2 4.8 0.00 0.00 0.00 64 1017.3
20200929073806 19 278 1.6 4.8 0.00 0.00 0.00 64 1017.3
20200929073304 19 261 1.6 4.8 0.00 0.00 0.00 64 1017.2
20200929072807 19 103 4.8 9.7 0.00 0.00 0.00 64 1017.2
20200929072305 19 167 1.6 4.8 0.00 0.00 0.00 64 1017.2
20200929071806 19 45 8.0 33.8 0.00 0.00 0.00 64 1017.2
20200929071306 19 64 11.3 33.8 0.00 0.00 0.00 65 1017.0
20200929070804 19 69 4.8 19.3 0.00 0.00 0.00 65 1017.0
20200929065806 19 53 3.2 4.8 0.00 0.00 0.00 65 1017.1
20200929065311 19 40 4.8 9.7 0.00 0.00 0.00 65 1017.1
20200929064804 19 51 6.4 19.3 0.00 0.00 0.00 65 1017.1
20200929064304 19 50 12.9 22.5 0.00 0.00 0.00 66 1017.0
20200929062814 19 31 8.0 11.3 0.00 0.00 0.00 68 1017.0
20200929062307 19 48 4.8 4.8 0.00 0.00 0.00 68 1016.9
20200929061805 19 43 4.8 8.0 0.00 0.00 0.00 67 1016.9
20200929060804 20 28 1.6 4.8 0.00 0.00 0.00 66 1016.9
20200929060306 20 49 3.2 4.8 0.00 0.00 0.00 66 1016.9
20200929055805 20 54 4.8 9.7 0.00 0.00 0.00 66 1016.9
20200929054808 20 89 3.2 4.8 0.00 0.00 0.00 65 1016.8
20200929054306 20 89 3.2 4.8 0.00 0.00 0.00 64 1016.8
20200929053806 20 75 4.8 8.0 0.00 0.00 0.00 63 1016.8
20200929053305 20 80 6.4 11.3 0.00 0.00 0.00 63 1016.7
20200929052305 20 83 4.8 11.3 0.00 0.00 0.00 62 1016.6
20200929051307 20 23 4.8 11.3 0.00 0.00 0.00 61 1016.5
20200929050307 20 71 11.3 22.5 0.00 0.00 0.00 62 1016.3
20200929045806 20 48 14.5 22.5 0.00 0.00 0.00 62 1016.3
20200929045305 20 43 12.9 20.9 0.00 0.00 0.00 62 1016.5
20200929044805 20 46 9.7 16.1 0.00 0.00 0.00 62 1016.5
20200929043810 20 37 11.3 16.1 0.00 0.00 0.00 63 1016.3
20200929042804 20 68 11.3 14.5 0.00 0.00 0.00 64 1016.2
20200929042317 20 69 11.3 19.3 0.00 0.00 0.00 64 1016.2
20200929041804 20 10 9.7 22.5 0.00 0.00 0.00 65 1016.2
20200929041305 20 98 4.8 9.7 0.00 0.00 0.00 67 1016.3
20200929040815 20 83 1.6 4.8 0.00 0.00 0.00 68 1016.4
20200929040308 20 77 1.6 4.8 0.00 0.00 0.00 68 1016.2
20200929034806 19 53 4.8 8.0 0.00 0.00 0.00 68 1016.2
20200929033309 19 64 3.2 8.0 0.00 0.00 0.00 68 1016.2
20200929032306 19 37 4.8 8.0 0.00 0.00 0.00 68 1016.4
20200929031810 19 39 4.8 4.8 0.00 0.00 0.00 68 1016.4
20200929031304 19 18 3.2 4.8 0.00 0.00 0.00 67 1016.4